| time (UTC) | temp C | wind direction | speed KPH | gust KPH | rain 1hr cm | rain 24hr cm | rain mn cm | humidity % | barometer mb |
| 20260505101547 | 12 | 0 | 0.0 | 0.0 | 0.00 | 0.00 | 0.00 | 76 | 1022.6 |
| 20260505100110 | 12 | 0 | 0.0 | 3.2 | 0.00 | 0.00 | 0.00 | 76 | 1022.7 |
| 20260505094546 | 12 | 288 | 0.0 | 0.0 | 0.00 | 0.00 | 0.00 | 74 | 1022.8 |
| 20260505093052 | 13 | 0 | 0.0 | 3.2 | 0.00 | 0.00 | 0.00 | 73 | 1022.7 |
| 20260505091559 | 13 | 0 | 0.0 | 0.0 | 0.00 | 0.00 | 0.00 | 73 | 1022.6 |
| 20260505090058 | 13 | 0 | 0.0 | 0.0 | 0.00 | 0.00 | 0.00 | 73 | 1022.5 |
| 20260505084539 | 13 | 0 | 0.0 | 0.0 | 0.00 | 0.00 | 0.00 | 72 | 1022.4 |
| 20260505083051 | 13 | 0 | 0.0 | 0.0 | 0.00 | 0.00 | 0.00 | 72 | 1022.4 |
| 20260505081545 | 13 | 0 | 0.0 | 3.2 | 0.00 | 0.00 | 0.00 | 72 | 1022.3 |
| 20260505080053 | 13 | 309 | 0.0 | 4.8 | 0.00 | 0.00 | 0.00 | 71 | 1022.2 |
| 20260505074542 | 13 | 297 | 0.0 | 1.6 | 0.00 | 0.00 | 0.00 | 70 | 1022.1 |
| 20260505073056 | 14 | 205 | 1.6 | 6.4 | 0.00 | 0.00 | 0.00 | 69 | 1021.9 |
| 20260505071546 | 14 | 0 | 0.0 | 8.0 | 0.00 | 0.00 | 0.00 | 68 | 1021.7 |
| 20260505070043 | 14 | 274 | 4.8 | 12.9 | 0.00 | 0.00 | 0.00 | 67 | 1021.6 |
| 20260505064549 | 14 | 0 | 1.6 | 8.0 | 0.00 | 0.10 | 0.00 | 68 | 1021.4 |
| 20260505063051 | 15 | 257 | 3.2 | 11.3 | 0.00 | 0.10 | 0.00 | 67 | 1021.3 |
| 20260505061548 | 15 | 288 | 3.2 | 14.5 | 0.00 | 0.10 | 0.00 | 67 | 1021.2 |
| 20260505060048 | 15 | 183 | 1.6 | 11.3 | 0.00 | 0.10 | 0.00 | 65 | 1021.1 |
| 20260505054614 | 15 | 0 | 1.6 | 9.7 | 0.00 | 0.13 | 0.00 | 65 | 1021.0 |
| 20260505053047 | 15 | 273 | 3.2 | 16.1 | 0.00 | 0.13 | 0.00 | 63 | 1020.7 |
| 20260505051549 | 15 | 202 | 1.6 | 12.9 | 0.00 | 0.13 | 0.00 | 65 | 1020.6 |
| 20260505041609 | 16 | 0 | 0.0 | 16.1 | 0.00 | 0.13 | 0.00 | 63 | 1020.0 |
| 20260505040100 | 16 | 227 | 4.8 | 12.9 | 0.00 | 0.13 | 0.00 | 62 | 1019.9 |
| 20260505034546 | 17 | 202 | 3.2 | 16.1 | 0.00 | 0.13 | 0.00 | 60 | 1019.9 |
| 20260505033045 | 17 | 261 | 6.4 | 14.5 | 0.00 | 0.13 | 0.00 | 61 | 1019.9 |
| 20260505031553 | 17 | 251 | 6.4 | 16.1 | 0.00 | 0.13 | 0.00 | 58 | 1020.0 |
| 20260505030058 | 17 | 202 | 8.0 | 16.1 | 0.00 | 0.13 | 0.00 | 63 | 1020.0 |
| 20260505024547 | 16 | 281 | 4.8 | 17.7 | 0.00 | 0.13 | 0.00 | 63 | 1020.4 |
| 20260505023048 | 16 | 280 | 6.4 | 17.7 | 0.00 | 0.13 | 0.00 | 64 | 1020.2 |
| 20260505021552 | 16 | 274 | 4.8 | 17.7 | 0.00 | 0.13 | 0.00 | 66 | 1020.5 |
| 20260505020053 | 15 | 279 | 3.2 | 14.5 | 0.00 | 0.13 | 0.00 | 68 | 1020.7 |
| 20260505014545 | 13 | 229 | 3.2 | 20.9 | 0.00 | 0.13 | 0.00 | 73 | 1020.8 |
| 20260505013049 | 13 | 263 | 4.8 | 16.1 | 0.00 | 0.13 | 0.00 | 70 | 1020.8 |
| 20260505011540 | 13 | 201 | 3.2 | 19.3 | 0.00 | 0.13 | 0.00 | 72 | 1021.0 |
| 20260505010103 | 13 | 175 | 1.6 | 17.7 | 0.00 | 0.13 | 0.00 | 73 | 1020.9 |
| 20260505004540 | 13 | 294 | 4.8 | 19.3 | 0.00 | 0.13 | 0.00 | 73 | 1020.7 |
| 20260505003050 | 14 | 215 | 3.2 | 19.3 | 0.00 | 0.13 | 0.00 | 72 | 1020.6 |
| 20260505001545 | 14 | 271 | 4.8 | 14.5 | 0.00 | 0.13 | 0.00 | 73 | 1020.4 |
| 20260505000051 | 15 | 304 | 3.2 | 16.1 | 0.00 | 0.13 | 0.00 | 70 | 1020.3 |
| 20260504234542 | 15 | 229 | 8.0 | 19.3 | 0.00 | 0.13 | 0.00 | 71 | 1020.0 |
| 20260504233052 | 14 | 295 | 3.2 | 17.7 | 0.00 | 0.13 | 0.00 | 74 | 1020.2 |
| 20260504231538 | 13 | 274 | 6.4 | 16.1 | 0.00 | 0.13 | 0.00 | 79 | 1019.9 |
| 20260504230104 | 12 | 328 | 8.0 | 20.9 | 0.00 | 0.13 | 0.00 | 83 | 1019.7 |
| 20260504224558 | 12 | 263 | 6.4 | 16.1 | 0.00 | 0.13 | 0.00 | 89 | 1019.6 |
| 20260504223040 | 11 | 250 | 3.2 | 12.9 | 0.00 | 0.13 | 0.00 | 90 | 1019.4 |
| 20260504221546 | 11 | 311 | 0.0 | 6.4 | 0.00 | 0.13 | 0.00 | 94 | 1019.2 |
| 20260504220056 | 11 | 0 | 0.0 | 3.2 | 0.00 | 0.13 | 0.00 | 94 | 1018.9 |
| 20260504214547 | 10 | 0 | 1.6 | 8.0 | 0.00 | 0.13 | 0.00 | 93 | 1018.7 |
| 20260504213046 | 11 | 204 | 1.6 | 14.5 | 0.00 | 0.13 | 0.00 | 93 | 1018.4 |
| 20260504211542 | 10 | 311 | 1.6 | 12.9 | 0.00 | 0.13 | 0.00 | 93 | 1018.2 |
| 20260504210054 | 10 | 0 | 1.6 | 9.7 | 0.00 | 0.13 | 0.00 | 93 | 1017.8 |
| 20260504204546 | 10 | 0 | 0.0 | 4.8 | 0.00 | 0.13 | 0.00 | 93 | 1017.8 |
| 20260504203047 | 10 | 0 | 0.0 | 1.6 | 0.00 | 0.13 | 0.00 | 93 | 1017.6 |
| 20260504201548 | 10 | 180 | 1.6 | 8.0 | 0.00 | 0.13 | 0.00 | 93 | 1017.3 |
| 20260504200052 | 10 | 0 | 0.0 | 0.0 | 0.00 | 0.13 | 0.00 | 92 | 1017.1 |
| 20260504194548 | 10 | 0 | 0.0 | 0.0 | 0.00 | 0.13 | 0.00 | 92 | 1016.8 |
| 20260504193044 | 10 | 0 | 0.0 | 1.6 | 0.00 | 0.13 | 0.00 | 92 | 1016.6 |
| 20260504191604 | 10 | 0 | 0.0 | 0.0 | 0.00 | 0.13 | 0.00 | 91 | 1016.4 |
| 20260504190047 | 10 | 0 | 0.0 | 0.0 | 0.00 | 0.13 | 0.00 | 90 | 1016.3 |
| 20260504184543 | 10 | 0 | 0.0 | 0.0 | 0.00 | 0.13 | 0.00 | 90 | 1016.1 |
| 20260504183050 | 10 | 0 | 0.0 | 0.0 | 0.00 | 0.13 | 0.00 | 89 | 1016.0 |
| 20260504181546 | 10 | 0 | 0.0 | 3.2 | 0.00 | 0.13 | 0.00 | 88 | 1015.8 |
| 20260504180047 | 10 | 0 | 0.0 | 4.8 | 0.00 | 0.13 | 0.00 | 89 | 1015.7 |
| 20260504174551 | 10 | 269 | 1.6 | 9.7 | 0.00 | 0.13 | 0.00 | 88 | 1015.6 |
| 20260504173042 | 10 | 0 | 1.6 | 9.7 | 0.00 | 0.13 | 0.00 | 89 | 1015.5 |
| 20260504171542 | 10 | 267 | 1.6 | 8.0 | 0.00 | 0.13 | 0.00 | 90 | 1015.6 |
| 20260504120109 | 11 | 0 | 0.0 | 3.2 | 0.00 | 0.13 | 0.13 | 87 | 1014.2 |